SCP
0 0 0 0 0 0 0 0 0 0 0 0 0 0 0 0 0 0 0 0 0 0 0 0 0 0 0 0 0 1 1 1 1 2 2 2 1 1 1 1 1 1 1 1 1 1 1 1 0
0 0 0 0 0 0 0 0 0 0 0 0 0 0 0 0 0 0 0 0 0 0 0 0 0 0 0 0 0 1 1 1 2 2 2 2 2 2 1 1 1 1 1 1 1 1 1 0 0
0 0 0 0 0 0 0 0 0 0 0 0 0 0 0 0 0 0 0 0 0 0 0 1 1 1 1 1 1 1 1 1 2 2 2 2 2 2 2 1 1 1 1 1 1 1 0 0 0
0 0 0 0 0 0 0 0 0 0 0 0 0 0 0 0 0 0 0 0 0 1 1 1 1 1 1 1 1 1 1 2 2 2 2 2 2 2 2 2 1 1 1 1 1 1 1 0 0
0 0 0 0 0 0 0 0 0 0 0 0 0 0 0 0 0 0 0 1 1 1 1 1 1 1 1 1 1 1 1 2 2 2 2 2 2 2 2 2 1 1 1 1 1 1 0 0 0
0 0 0 0 0 0 0 0 0 0 0 0 0 0 0 0 0 0 0 1 1 1 1 1 1 1 2 2 2 1 1 2 2 2 2 2 1 1 1 1 1 1 1 1 1 0 0 0 0
0 0 0 0 0 0 0 0 0 0 0 0 0 0 0 0 0 0 1 1 1 1 1 1 1 1 2 2 2 2 1 2 2 2 2 2 1 1 1 1 1 1 1 1 0 0 0 0 0
0 0 0 0 0 0 0 0 0 0 0 0 0 0 0 0 1 1 1 1 1 1 1 1 1 1 1 1 2 2 2 2 2 2 2 2 1 1 1 1 1 1 1 0 0 0 0 0 0
0 0 0 0 0 0 0 0 1 1 1 0 0 0 1 1 1 1 1 1 1 1 1 1 1 1 1 1 1 1 1 1 1 2 2 1 1 1 1 1 1 0 0 0 0 0 0 0 0
0 0 0 0 0 0 0 0 1 1 1 1 1 1 1 1 1 1 1 1 1 1 1 1 1 1 1 1 1 1 1 1 1 1 1 1 1 1 1 1 0 0 0 0 0 0 0 0 0
0 0 0 0 0 0 0 0 1 1 1 1 1 1 1 1 1 1 1 1 1 1 1 1 1 1 1 1 1 1 1 0 1 1 1 0 0 0 0 0 0 0 0 0 0 0 0 0 0
0 0 0 0 0 0 0 0 0 1 1 1 1 1 1 1 1 1 1 1 1 1 1 1 1 1 1 1 1 1 1 0 0 0 0 0 0 0 0 0 0 0 0 0 0 0 0 0 0
0 0 0 0 0 0 0 0 0 1 1 1 1 1 1 1 1 1 1 1 1 1 1 1 1 1 1 1 1 1 1 1 0 0 0 0 0 0 0 0 0 0 0 0 0 0 0 0 0
0 0 0 0 0 0 0 0 0 1 1 1 1 1 1 1 1 1 1 1 1 1 1 1 1 1 1 1 1 1 1 1 0 0 0 0 0 0 0 0 0 0 0 0 0 0 0 0 0
0 0 0 0 0 0 0 0 0 0 1 1 1 1 1 1 1 1 1 1 1 2 2 2 2 2 1 1 1 1 1 1 1 0 0 0 0 0 0 0 0 0 0 0 0 0 0 0 0
0 0 0 0 0 0 0 0 0 0 0 1 1 1 1 1 1 1 1 1 1 2 2 2 2 2 1 1 1 1 1 1 1 0 0 0 0 0 0 0 0 0 0 0 0 0 0 0 0
0 0 0 0 0 0 0 0 0 0 0 0 1 1 1 1 1 1 1 1 1 2 2 2 2 2 1 1 1 1 1 1 1 1 0 0 0 0 0 0 0 0 0 0 0 0 0 0 0
0 0 0 0 0 0 0 0 0 0 0 0 1 1 1 1 1 1 1 1 1 2 2 2 2 2 1 1 1 1 1 1 1 1 0 0 0 0 0 0 0 0 0 0 0 0 0 0 0
0 0 0 0 0 0 0 0 0 0 0 0 1 1 1 1 1 1 1 1 1 2 2 2 2 2 1 1 1 1 1 1 1 0 0 0 0 0 0 0 0 0 0 0 0 0 0 0 0
0 0 0 0 0 0 0 0 0 0 0 0 0 1 1 1 1 1 1 1 1 2 2 2 2 1 1 1 1 1 1 1 0 0 0 0 0 0 0 0 0 0 0 1 0 0 0 0 0
0 0 0 0 0 0 0 0 0 0 0 0 0 0 1 1 1 1 1 1 1 2 2 2 2 1 1 1 1 1 1 1 0 0 0 0 0 0 0 0 0 0 1 1 0 0 0 0 0
0 0 0 0 0 0 0 0 0 0 0 0 0 0 1 1 1 1 1 1 1 1 2 2 1 1 1 1 1 1 1 1 0 0 0 0 0 0 0 0 1 1 1 1 1 0 0 0 0
0 0 0 0 0 0 0 0 0 0 0 0 0 0 1 1 1 1 1 1 1 1 1 1 1 1 1 1 1 1 1 1 1 1 0 0 0 0 0 1 1 1 1 1 1 0 0 0 0
0 0 0 0 0 0 0 0 0 0 0 0 0 0 1 1 1 1 1 1 1 1 1 1 1 1 1 1 1 1 1 1 1 1 1 0 0 1 1 1 1 1 1 1 1 0 0 0 0
0 0 0 0 0 0 0 0 0 0 0 0 0 1 1 1 1 1 1 1 1 1 1 1 1 1 1 1 1 1 1 1 1 1 1 1 1 1 1 1 1 1 1 1 0 0 0 0 0
0 0 0 0 0 0 0 0 0 0 0 0 0 1 1 1 1 1 1 1 1 1 1 1 1 1 1 1 1 1 1 1 1 1 1 1 1 1 1 1 1 1 1 0 0 0 0 0 0
0 0 0 0 0 0 0 0 0 0 0 0 0 1 1 1 1 1 1 1 1 1 1 1 1 1 1 2 1 1 1 1 1 1 1 1 1 1 1 1 1 1 0 0 0 0 0 0 0
0 0 0 0 0 0 0 0 0 0 0 0 0 1 1 1 1 1 1 1 1 1 1 1 1 1 2 2 2 2 2 2 2 1 1 1 1 1 1 1 1 1 0 0 0 0 0 0 0
0 0 0 0 0 0 0 0 0 0 0 0 0 1 1 1 1 1 1 1 1 1 1 1 1 2 2 2 2 2 2 2 2 2 2 1 1 1 2 1 1 1 0 0 0 0 0 0 0
0 0 0 0 0 0 0 0 0 0 0 0 0 1 1 1 1 1 1 1 1 1 1 1 1 2 2 2 2 2 2 2 2 2 2 2 1 1 2 1 1 1 0 0 0 0 0 0 0
Wind_Speed
8 6 2 1 5 6 7 7 10 9 8 10 12 12 11 9 7 8 3 7 8 6 4 8 13 13 14 14 15 15 15 15 16 16 16 16 16 16 16 15 15 15 15 15 15 16 16 15 15
5 5 1 3 6 6 6 8 13 13 12 12 13 14 11 9 8 9 5 7 8 7 5 8 12 13 14 14 14 14 14 15 15 16 16 16 15 15 15 15 14 15 15 15 14 14 14 14 13
4 3 2 4 5 7 7 10 13 13 11 9 8 8 7 6 7 6 7 10 9 6 5 7 13 13 13 13 13 13 14 14 14 15 15 15 15 14 14 14 14 14 14 13 13 13 13 12 12
2 2 4 5 8 7 10 11 14 13 11 10 9 8 6 6 6 9 12 12 10 6 5 7 12 12 12 12 13 13 13 14 14 14 14 14 13 13 13 13 13 13 12 12 11 11 11 11 10
2 4 5 6 8 8 11 13 13 12 8 10 11 10 7 6 12 14 13 12 10 6 5 7 12 12 12 12 12 12 13 13 13 14 13 13 13 12 12 12 12 11 11 10 10 9 9 8 8
3 4 5 6 9 10 10 13 16 16 15 12 12 10 5 7 11 11 11 10 9 8 5 6 11 12 11 12 12 12 12 12 12 12 12 12 11 11 10 10 10 10 9 9 8 7 7 6 6
4 4 5 7 9 9 9 10 13 13 12 8 8 7 5 5 8 10 10 9 8 7 6 4 4 7 10 11 11 11 11 11 11 11 11 10 10 9 9 8 8 8 8 7 7 6 5 4 4
5 5 5 6 8 8 8 9 11 13 10 11 7 8 7 7 9 10 9 8 7 6 5 4 3 3 4 5 9 10 10 9 10 10 9 9 8 7 7 7 7 7 6 6 5 4 3 2 1
5 6 5 6 8 8 11 13 8 9 11 7 6 8 11 13 12 10 8 6 6 6 4 4 4 3 3 4 6 7 8 7 7 6 7 6 2 2 3 5 6 6 5 4 3 3 2 1 1
5 6 7 6 9 11 12 13 9 9 11 11 12 12 13 12 11 10 9 7 6 6 5 4 4 4 4 4 3 2 3 3 2 2 2 2 1 1 2 3 4 4 4 3 2 3 2 1 0
6 7 6 7 10 12 11 10 8 12 10 13 16 15 12 11 10 9 8 7 7 6 6 5 4 4 3 2 2 1 1 2 2 2 2 1 1 1 1 0 0 1 2 1 0 1 0 0 0
7 7 8 8 10 11 11 9 8 8 11 14 15 14 11 11 9 8 8 7 6 6 6 5 4 4 3 3 2 2 1 2 2 2 2 2 1 1 1 1 1 1 0 1 0 0 0 1 1
7 6 8 11 11 10 12 10 10 10 14 14 14 13 11 11 9 7 7 7 6 5 5 5 5 4 4 3 2 2 2 2 2 2 2 3 2 1 1 1 1 1 1 1 1 1 0 0 1
5 7 8 11 12 11 15 10 8 11 15 14 13 11 10 11 10 8 7 7 6 6 5 4 5 4 4 3 2 2 2 2 2 2 2 3 2 2 1 1 1 1 1 1 1 1 1 0 1
6 7 6 6 9 8 12 7 8 13 14 14 12 11 10 10 10 10 9 8 7 7 6 5 5 4 4 3 2 2 2 2 2 2 2 2 2 2 2 1 1 1 0 0 1 1 1 1 1
5 5 3 3 7 7 10 6 8 12 13 12 11 11 10 9 10 10 9 8 7 7 6 6 5 4 3 2 2 2 2 2 2 2 1 2 2 3 2 1 1 0 1 1 1 1 1 1 1
3 3 4 3 6 7 6 6 10 12 13 12 11 10 10 9 8 9 10 9 8 8 7 6 4 5 4 3 2 2 2 2 1 1 1 2 2 2 2 1 1 0 1 1 1 1 1 1 1
3 3 4 5 6 6 5 6 12 12 13 12 11 10 10 11 10 10 10 9 8 8 7 6 5 4 4 2 2 1 1 0 1 1 1 2 2 2 2 1 1 1 1 1 1 1 1 1 1
5 4 4 4 5 6 7 8 12 12 11 11 11 11 11 11 9 10 10 9 8 7 6 6 5 4 3 2 2 1 1 1 1 1 1 2 2 2 2 1 1 1 1 1 2 1 1 0 1
4 3 2 2 4 5 6 6 9 12 14 14 14 13 13 10 9 10 9 9 9 8 7 7 6 5 4 3 2 2 2 1 1 0 0 1 1 2 2 2 1 1 1 1 1 2 1 1 1
3 5 4 4 3 4 6 1 4 7 7 9 11 12 12 14 14 12 11 10 10 9 9 8 7 6 5 4 2 1 1 1 1 1 0 1 1 2 2 2 2 1 2 2 2 2 2 2 1
4 5 5 5 5 1 4 2 5 7 7 9 11 12 13 13 13 12 12 11 11 11 9 8 7 6 5 4 3 3 3 2 2 1 1 0 0 1 1 2 2 2 1 1 2 2 2 2 1
5 3 3 4 4 1 1 3 6 3 7 11 13 15 15 15 15 14 14 13 12 11 9 8 7 6 5 4 5 4 3 2 1 1 1 0 1 1 1 1 1 1 1 1 1 1 1 2 2
3 5 6 6 5 1 3 4 5 7 13 13 13 15 15 15 15 14 12 10 9 9 9 8 8 7 6 5 5 4 4 3 2 1 1 1 0 1 1 0 1 1 1 1 1 1 1 1 1
6 7 4 5 4 4 3 3 9 9 11 14 15 15 15 14 14 13 12 11 11 11 10 9 9 8 7 6 5 5 4 4 4 3 2 1 1 1 1 0 1 0 0 0 0 1 1 1 1
4 10 9 5 4 4 2 3 8 7 7 9 10 11 12 13 12 13 13 13 12 12 11 10 9 8 7 6 5 4 4 3 2 2 2 2 1 1 1 1 1 1 1 0 0 0 1 0 0
4 4 8 8 2 1 3 4 7 2 3 6 7 9 12 13 14 13 13 12 11 11 11 11 10 8 7 7 6 4 4 4 3 3 2 1 1 1 1 1 2 1 1 1 1 1 0 0 0
7 8 6 6 5 1 3 3 5 3 5 6 8 9 10 11 11 12 11 11 11 10 9 9 9 9 8 7 6 6 4 4 3 3 2 2 1 1 2 2 2 1 1 1 1 1 1 1 1
3 4 6 5 7 7 3 7 7 9 9 10 10 10 11 11 11 10 10 10 10 9 9 9 9 8 7 7 6 5 5 4 4 3 3 3 2 2 2 2 2 2 1 1 2 1 1 2 1
6 7 8 6 3 5 5 8 6 8 9 10 10 9 9 10 9 8 8 8 9 9 9 9 9 8 8 7 7 6 5 5 4 4 3 3 3 2 2 2 2 2 1 1 2 1 1 2 1
Wind_Direction
164 168 169 118 57 63 80 85 91 78 65 64 71 78 77 64 87 118 159 129 119 108 93 91 88 87 88 90 89 87 88 92 96 100 102 101 102 103 103 104 104 105 105 104 105 106 108 109 110
164 169 146 53 78 82 77 90 88 91 114 106 82 79 74 72 86 109 129 131 120 113 102 98 95 94 93 93 92 91 92 95 98 100 101 102 100 101 103 103 103 104 105 105 107 108 110 112 112
175 179 95 70 92 111 110 102 101 100 98 91 86 65 66 94 102 118 140 131 116 108 104 106 102 100 98 98 97 96 96 98 100 102 103 104 102 102 101 103 104 105 106 107 109 111 113 114 113
146 65 52 78 94 107 115 115 111 102 76 72 89 76 69 94 107 126 133 126 117 115 114 115 109 106 103 102 103 101 99 101 102 104 104 104 104 106 106 105 107 108 109 110 111 113 114 114 113
85 77 64 78 96 104 111 115 108 96 83 85 92 99 86 84 109 124 130 126 123 123 119 122 117 113 109 108 107 104 103 103 104 105 106 107 107 108 108 108 110 112 112 113 113 115 115 114 113
73 73 82 91 94 99 105 110 103 101 108 104 102 102 91 114 119 127 127 129 130 131 126 125 125 121 116 115 113 110 110 109 108 108 108 110 111 110 111 113 115 116 116 116 117 117 116 112 111
111 102 117 114 105 107 115 115 112 122 123 117 119 100 110 122 131 127 125 127 131 131 128 124 129 127 125 122 121 121 119 117 116 115 116 116 116 117 119 124 123 123 122 123 124 126 124 116 112
138 104 98 105 115 116 119 105 121 126 116 126 120 117 141 150 136 127 122 121 126 129 132 134 130 126 127 126 129 126 127 125 125 124 125 126 125 124 128 136 137 136 134 134 135 137 139 133 130
107 94 124 143 132 129 118 106 104 103 114 116 100 119 140 140 132 124 120 117 129 135 141 142 142 140 139 144 143 137 135 134 131 130 131 126 107 111 132 149 151 149 150 154 162 172 176 195 237
102 120 162 161 140 134 125 123 125 112 109 107 107 116 132 136 133 132 137 143 144 148 156 153 151 155 155 150 131 136 137 136 134 133 127 120 129 149 144 151 162 167 174 191 195 211 223 244 295
119 132 138 125 130 130 126 123 116 123 127 140 141 144 144 140 138 142 149 152 156 160 156 157 159 158 151 135 140 154 148 152 158 158 152 138 122 122 108 112 129 155 186 214 292 293 289 218 219
110 125 134 134 128 128 130 125 117 129 146 148 146 148 146 145 148 152 153 155 155 155 160 161 159 153 153 138 150 165 161 163 166 175 164 147 132 140 159 184 217 201 201 203 254 302 232 199 210
101 111 122 126 125 124 119 121 119 128 137 141 144 147 149 152 156 159 159 155 149 151 154 155 149 146 149 143 159 160 176 174 174 167 169 159 154 167 175 200 198 195 194 183 179 190 214 210 191
133 116 118 124 119 121 121 120 111 138 142 146 151 157 159 158 158 156 158 156 157 158 160 157 147 146 144 144 159 157 163 161 161 159 175 163 155 161 167 178 183 196 197 189 176 187 180 183 140
108 100 94 124 118 127 112 100 136 150 148 152 158 162 161 163 160 162 166 165 163 160 162 158 153 146 139 142 150 140 143 139 146 163 164 152 144 148 151 143 163 209 180 151 123 124 108 94 92
79 83 115 186 138 146 114 140 162 157 154 158 164 166 166 169 169 168 166 165 164 157 159 165 160 152 149 146 138 124 137 143 156 165 163 155 143 145 144 138 177 238 104 110 119 120 100 64 71
55 133 176 198 174 151 123 160 174 169 163 168 170 169 168 169 172 172 170 168 165 162 162 166 156 156 161 158 143 134 137 152 163 155 169 176 163 150 139 155 196 185 104 106 127 115 139 136 110
210 174 178 190 187 144 140 169 171 176 171 174 174 173 172 175 179 175 172 168 165 163 162 164 160 163 160 144 115 94 89 144 176 177 191 184 180 159 135 155 199 155 121 86 97 133 131 146 138
183 168 187 207 179 140 151 165 175 179 177 178 177 178 180 183 181 174 171 167 164 162 159 163 159 169 156 145 145 147 173 211 224 207 190 190 181 157 143 151 165 155 149 170 152 138 107 95 122
186 176 201 170 159 137 147 174 182 184 187 184 182 183 183 179 175 177 174 172 171 171 168 167 170 171 170 171 173 169 170 197 201 201 169 199 177 171 157 163 176 170 150 140 146 141 136 205 158
218 196 192 165 93 71 110 72 206 206 193 193 190 187 184 182 180 181 179 179 175 175 176 176 179 174 175 169 145 125 79 28 20 13 298 271 193 182 173 169 181 181 170 183 199 183 172 205 238
243 223 175 145 112 183 143 177 246 203 200 203 198 192 191 187 183 182 182 181 181 182 178 174 177 176 177 169 158 157 164 183 215 209 204 242 233 196 192 191 189 190 187 192 209 191 189 176 223
211 209 141 130 126 90 48 124 270 184 207 214 204 198 194 189 185 186 186 185 184 180 176 176 175 179 179 173 170 167 174 190 199 179 164 215 292 283 243 190 179 190 198 201 207 206 196 185 198
144 61 39 54 76 75 234 148 247 208 205 207 202 198 193 189 188 188 187 179 178 177 177 176 174 182 183 180 177 174 176 174 157 170 186 215 277 299 303 147 163 189 199 208 215 206 203 201 192
97 92 38 8 18 254 235 158 238 224 205 197 192 192 191 187 184 182 180 179 180 179 181 179 177 184 184 181 180 177 175 171 175 184 195 187 199 264 274 108 116 119 189 165 151 152 173 195 178
165 138 152 174 207 280 320 226 254 243 205 187 181 180 179 180 181 181 183 182 182 183 182 179 179 183 181 178 181 180 176 171 176 176 175 183 193 206 207 138 119 124 121 96 93 127 177 137 176
146 153 161 134 145 97 283 289 309 311 126 142 157 168 179 181 182 182 182 182 180 180 181 179 178 177 176 178 177 178 178 172 173 168 164 177 193 164 141 126 117 108 99 98 100 82 88 64 51
156 151 103 116 140 186 280 261 232 235 165 160 158 168 179 176 178 181 179 179 180 178 177 174 175 177 177 178 182 181 180 175 168 158 155 155 159 143 128 120 112 94 72 71 84 79 79 90 53
129 109 110 121 147 148 203 263 223 197 185 174 177 177 172 171 174 174 178 174 171 170 170 173 175 171 172 176 177 175 174 171 165 164 165 156 143 137 139 140 125 106 82 79 83 81 95 96 67
160 161 142 144 198 158 161 258 250 193 183 174 175 176 172 170 171 168 166 161 163 168 170 173 174 174 175 174 170 173 168 165 168 170 168 155 146 144 150 145 134 125 108 92 95 92 87 104 93